Date String (YYYY-MM-DD hh:mm:ss) UTC,Instrument flags,absolute air pressure of the measurement (hPa),sample flow rate (lpm),inlet stack bypass flow (lpm),air temperature of the measurement (°C),ambient temperature measured by the external sensor (°C),aerosol sample conditioner tube jacket temperature (°C),OPC LED temperature (°C),internal box temperature (°C),relative humidity of the measurement (%),span deviation,mass concentration of particles derived from Lorenz-Mie calculation of OPC scattering (μg/m³),mass concentration of particles derived from Lorenz-Mie calculation of OPC scattering (μg/m³),mass concentration of particles derived from Lorenz-Mie calculation of OPC scattering (μg/m³)
DateTimeUTC,F1_M11,P_M11,Q1_M11,Q2_M11,T1_M11,T2_M11,T3_M11,T4_M11,T5_M11,U1_M11,ZSPAN_M11,X2_M11,X0_M11,X1_M11
2024-01-09 15:00:00,SystemResetWarning,0820.2,5.02,000.00,019.0,019.4,000.0,027.2,020.9,6.6,0000.0,0002.66,0005.96,0002.15
2024-01-09 15:01:00,SystemResetWarning,0819.9,5.00,000.00,019.1,019.5,000.0,027.3,020.8,6.6,0000.0,0002.63,0005.89,0002.14
2024-01-09 15:02:00,SystemResetWarning,0819.5,5.00,000.00,019.1,019.4,000.0,027.3,020.6,6.6,0000.0,0002.60,0005.85,0002.13
2024-01-09 15:03:00,SystemResetWarning,0819.6,4.99,000.00,019.1,019.2,000.0,027.3,020.4,6.6,0000.0,0002.57,0005.80,0002.12
2024-01-09 15:04:00,SystemResetWarning,0820.0,5.00,000.00,019.1,019.0,000.0,027.3,020.4,6.6,0000.0,0002.56,0005.87,0002.10
2024-01-09 15:05:00,SystemResetWarning,0819.5,5.01,000.00,019.1,018.8,000.0,027.3,020.3,6.6,0000.0,0002.51,0005.61,0002.08
2024-01-09 15:06:00,SystemResetWarning,0819.4,5.00,000.00,019.1,018.7,000.0,027.3,020.3,6.7,0000.0,0002.52,0005.36,0002.06
2024-01-09 15:07:00,SystemResetWarning,0819.5,5.00,000.00,019.0,018.6,000.0,027.3,020.2,6.7,0000.0,0002.47,0003.85,0002.05
2024-01-09 15:08:00,SystemResetWarning,0819.5,4.99,000.00,019.0,018.5,000.0,027.3,020.2,6.7,0000.0,0002.45,0003.71,0002.02
2024-01-09 15:09:00,SystemResetWarning,0819.5,5.00,000.00,019.0,018.5,000.0,027.3,020.2,6.7,0000.0,0002.39,0003.69,0002.00
2024-01-09 15:10:00,SystemResetWarning,0819.4,5.00,000.00,019.0,018.4,000.0,027.3,020.2,6.8,0000.0,0002.33,0003.58,0001.96
2024-01-09 15:11:00,SystemResetWarning,0819.6,5.00,000.00,018.9,018.4,000.0,027.3,020.1,6.8,0000.0,0002.28,0003.52,0001.94
2024-01-09 15:12:00,SystemResetWarning,0819.5,5.00,000.00,018.9,018.3,000.0,027.3,020.1,6.9,0000.0,0002.25,0003.85,0001.91
2024-01-09 15:13:00,SystemResetWarning,0819.5,5.00,000.00,018.9,018.3,000.0,027.3,020.1,7.0,0000.0,0002.22,0003.79,0001.90
2024-01-09 15:14:00,SystemResetWarning,0819.4,5.00,000.00,018.9,018.3,000.0,027.3,020.1,7.0,0000.0,0002.20,0003.95,0001.88
2024-01-09 15:15:00,SystemResetWarning,0819.5,5.00,000.00,018.8,018.2,000.0,027.2,020.1,7.0,0000.0,0002.17,0003.86,0001.85
2024-01-09 15:16:00,SystemResetWarning,0819.4,5.00,000.00,018.8,018.2,000.0,027.2,020.0,7.1,0000.0,0002.15,0003.81,0001.83
2024-01-09 15:17:00,SystemResetWarning,0819.4,5.00,000.00,018.8,018.2,000.0,027.2,020.0,7.1,0000.0,0002.10,0003.72,0001.82
2024-01-09 15:18:00,SystemResetWarning,0819.5,5.00,000.00,018.8,018.2,000.0,027.2,020.0,7.2,0000.0,0002.09,0003.67,0001.81
2024-01-09 15:19:00,SystemResetWarning,0819.4,5.00,000.00,018.8,018.2,000.0,027.2,020.0,7.2,0000.0,0002.06,0003.58,0001.80
2024-01-09 15:20:00,SystemResetWarning,0819.5,5.00,000.00,018.8,018.2,000.0,027.2,020.0,7.2,0000.0,0002.07,0003.51,0001.80
2024-01-09 15:21:00,SystemResetWarning,0819.4,5.00,000.00,018.8,018.1,000.0,027.2,020.0,7.3,0000.0,0002.10,0003.59,0001.81
2024-01-09 15:22:00,SystemResetWarning,0819.5,5.01,000.00,018.8,018.1,000.0,027.2,020.0,7.3,0000.0,0002.11,0003.47,0001.82
2024-01-09 15:23:00,SystemResetWarning,0819.5,5.00,000.00,018.8,018.1,000.0,027.2,020.0,7.4,0000.0,0002.15,0003.20,0001.82
2024-01-09 15:24:00,SystemResetWarning,0819.7,5.00,000.00,018.8,018.1,000.0,027.2,020.0,7.4,0000.0,0002.18,0003.27,0001.83
2024-01-09 15:25:00,SystemResetWarning,0819.9,5.00,000.00,018.8,018.1,000.0,027.2,020.0,7.4,0000.0,0002.18,0003.44,0001.82
2024-01-09 15:26:00,SystemResetWarning,0819.8,5.00,000.00,018.8,018.1,000.0,027.2,020.0,7.4,0000.0,0002.21,0003.56,0001.82
2024-01-09 15:27:00,SystemResetWarning,0819.9,5.00,000.00,018.8,018.1,000.0,027.2,020.0,7.5,0000.0,0002.27,0003.69,0001.84
2024-01-09 15:28:00,SystemResetWarning,0819.8,5.00,000.00,018.8,018.1,000.0,027.2,020.0,7.5,0000.0,0002.31,0003.79,0001.84
2024-01-09 15:29:00,SystemResetWarning,0819.7,5.00,000.00,018.7,018.1,000.0,027.2,020.0,7.5,0000.0,0002.28,0003.77,0001.84
2024-01-09 15:30:00,SystemResetWarning,0819.5,5.00,000.00,018.8,018.0,000.0,027.1,020.0,7.5,0000.0,0002.32,0003.89,0001.85
2024-01-09 15:31:00,SystemResetWarning,0819.5,5.00,000.00,018.7,018.0,000.0,027.2,020.0,7.6,0000.0,0002.40,0004.05,0001.86
2024-01-09 15:32:00,SystemResetWarning,0819.5,5.01,000.00,018.7,018.0,000.0,027.2,020.0,7.7,0000.0,0002.42,0004.08,0001.86
2024-01-09 15:33:00,SystemResetWarning,0819.5,5.00,000.00,018.8,018.0,000.0,027.1,020.0,7.8,0000.0,0002.40,0004.03,0001.86
2024-01-09 15:34:00,SystemResetWarning,0819.4,5.00,000.00,018.8,018.0,000.0,027.1,020.0,7.7,0000.0,0002.38,0003.96,0001.86
2024-01-09 15:35:00,SystemResetWarning,0819.4,5.00,000.00,018.7,018.0,000.0,027.1,020.0,7.7,0000.0,0002.38,0003.95,0001.88
2024-01-09 15:36:00,SystemResetWarning,0819.4,5.00,000.00,018.7,018.0,000.0,027.1,020.0,7.8,0000.0,0002.39,0003.73,0001.90
2024-01-09 15:37:00,SystemResetWarning,0819.4,4.99,000.00,018.7,018.0,000.0,027.1,020.0,7.8,0000.0,0002.41,0003.51,0001.94
2024-01-09 15:38:00,SystemResetWarning,0819.5,5.00,000.00,018.7,018.0,000.0,027.1,020.0,7.8,0000.0,0002.43,0003.49,0001.96
2024-01-09 15:39:00,SystemResetWarning,0819.4,5.00,000.00,018.7,018.0,000.0,027.1,020.0,7.8,0000.0,0002.44,0003.63,0001.99
2024-01-09 15:40:00,SystemResetWarning,0819.5,4.99,000.00,018.7,018.0,000.0,027.1,020.0,7.9,0000.0,0002.55,0004.14,0002.03
2024-01-09 15:41:00,SystemResetWarning,0819.7,5.00,000.00,018.7,018.2,000.0,027.1,020.2,7.9,0000.0,0002.61,0004.50,0002.06
2024-01-09 15:42:00,SystemResetWarning,0819.8,5.01,000.00,018.9,019.1,000.0,027.2,020.8,7.8,0000.0,0002.59,0005.64,0002.10
2024-01-09 15:43:00,SystemResetWarning,0820.0,4.99,000.00,019.1,019.4,000.0,027.2,020.8,7.8,0000.0,0002.59,0006.07,0002.12
2024-01-09 15:44:00,SystemResetWarning,0819.9,4.99,000.00,019.1,019.3,000.0,027.2,020.7,7.8,0000.0,0002.64,0006.92,0002.15
2024-01-09 15:45:00,SystemResetWarning,0819.6,5.00,000.00,019.1,019.2,000.0,027.2,020.6,7.8,0000.0,0002.73,0007.33,0002.17
2024-01-09 15:46:00,SystemResetWarning,0819.8,5.01,000.00,019.1,019.1,000.0,027.3,020.6,7.7,0000.0,0002.83,0007.58,0002.22
2024-01-09 15:47:00,SystemResetWarning,0819.8,5.00,000.00,019.1,019.0,000.0,027.3,020.5,7.7,0000.0,0002.87,0007.80,0002.25
2024-01-09 15:48:00,SystemResetWarning,0819.8,5.00,000.00,019.1,018.8,000.0,027.3,020.5,7.8,0000.0,0002.90,0007.81,0002.28
2024-01-09 15:49:00,SystemResetWarning,0819.5,5.00,000.00,019.1,018.7,000.0,027.3,020.4,7.8,0000.0,0002.92,0007.83,0002.30
2024-01-09 15:50:00,SystemResetWarning,0819.5,5.00,000.00,019.1,018.7,000.0,027.3,020.4,7.8,0000.0,0002.96,0007.82,0002.33
2024-01-09 15:51:00,SystemResetWarning,0819.6,5.00,000.00,019.1,018.6,000.0,027.3,020.4,7.8,0000.0,0002.95,0007.60,0002.37
2024-01-09 15:52:00,SystemResetWarning,0819.9,4.99,000.00,019.1,018.6,000.0,027.3,020.4,7.9,0000.0,0002.94,0007.34,0002.40
2024-01-09 15:53:00,SystemResetWarning,0819.8,5.00,000.00,019.1,018.5,000.0,027.3,020.4,7.8,0000.0,0002.96,0006.40,0002.41
2024-01-09 15:54:00,SystemResetWarning,0819.7,5.00,000.00,019.1,018.5,000.0,027.3,020.4,7.8,0000.0,0003.03,0006.45,0002.47
2024-01-09 15:55:00,SystemResetWarning,0820.2,4.99,000.00,019.1,018.5,000.0,027.3,020.4,7.9,0000.0,0003.08,0005.75,0002.52
2024-01-09 15:56:00,SystemResetWarning,0819.9,5.00,000.00,019.1,018.4,000.0,027.3,020.4,7.9,0000.0,0003.11,0005.52,0002.56
2024-01-09 15:57:00,SystemResetWarning,0819.9,5.00,000.00,019.1,018.4,000.0,027.3,020.4,7.9,0000.0,0003.13,0005.65,0002.59
2024-01-09 15:58:00,SystemResetWarning,0819.9,5.01,000.00,019.1,018.4,000.0,027.3,020.4,7.9,0000.0,0003.17,0005.57,0002.62
2024-01-09 15:59:00,SystemResetWarning,0820.2,5.00,000.00,019.0,018.4,000.0,027.3,020.4,7.8,0000.0,0003.21,0005.68,0002.67
